,,,PA_Meas_PMT16A,,PR_Meas_QMR101_102,,RH_Meas_QMH101,,SR_Meas_QMS101,,TA_Meas_QMH101,,GenWind,,GenWind,
date,time,status,PA,status,PR,status,RH,status,SR,status,TA,status,DirAvg,status,SpdAvg,
2012-03-19, 00:00:04,VALID,1010.45,VALID,0,VALID,104,VALID,0,VALID,23.8499,VALID,282,VALID,0.319531,
2012-03-19, 00:01:04,VALID,1010.43,VALID,0,VALID,104,VALID,0,VALID,23.8694,VALID,282,VALID,0.333203,
2012-03-19, 00:02:04,VALID,1010.44,VALID,0,VALID,104,VALID,0,VALID,23.8499,VALID,282,VALID,0.197266,
2012-03-19, 00:03:04,VALID,1010.45,VALID,0,VALID,104,VALID,0,VALID,23.8499,VALID,282,VALID,0,
2012-03-19, 00:04:04,VALID,1010.46,VALID,0,VALID,104,VALID,0,VALID,23.8304,VALID,282,VALID,0,
2012-03-19, 00:05:04,VALID,1010.46,VALID,0,VALID,104,VALID,0,VALID,23.8304,VALID,282,VALID,0,
2012-03-19, 00:06:04,VALID,1010.46,VALID,0,VALID,104,VALID,0,VALID,23.7896,VALID,282,VALID,0,
2012-03-19, 00:07:04,VALID,1010.44,VALID,0,VALID,104,VALID,0,VALID,23.8109,VALID,282,VALID,0,
2012-03-19, 00:08:04,VALID,1010.45,VALID,0,VALID,104,VALID,0,VALID,23.8304,VALID,282,VALID,0,
2012-03-19, 00:09:04,VALID,1010.44,VALID,0,VALID,104,VALID,0,VALID,23.8304,VALID,282,VALID,0,
2012-03-19, 00:10:04,VALID,1010.44,VALID,0,VALID,104,VALID,0,VALID,23.8499,VALID,282,VALID,0,
2012-03-19, 00:11:04,VALID,1010.43,VALID,0,VALID,104,VALID,0,VALID,23.8304,VALID,282,VALID,0,
2012-03-19, 00:12:04,VALID,1010.44,VALID,0,VALID,104,VALID,0,VALID,23.8304,VALID,283,VALID,0,
2012-03-19, 00:13:04,VALID,1010.41,VALID,0,VALID,104,VALID,0,VALID,23.8499,VALID,282,VALID,0,
2012-03-19, 00:14:04,VALID,1010.41,VALID,0,VALID,104,VALID,0,VALID,23.8304,VALID,282,VALID,0,
2012-03-19, 00:15:04,VALID,1010.39,VALID,0,VALID,104,VALID,0,VALID,23.8109,VALID,282,VALID,0,
2012-03-19, 00:16:04,VALID,1010.38,VALID,0,VALID,104,VALID,0,VALID,23.8109,VALID,283,VALID,0,
2012-03-19, 00:17:04,VALID,1010.38,VALID,0,VALID,104,VALID,0,VALID,23.8109,VALID,282,VALID,0,
2012-03-19, 00:18:04,VALID,1010.37,VALID,0,VALID,104,VALID,0,VALID,23.8322,VALID,282,VALID,0,
2012-03-19, 00:19:05,VALID,1010.37,VALID,0,VALID,104,VALID,0,VALID,23.8109,VALID,282,VALID,0,
2012-03-19, 00:20:05,VALID,1010.33,VALID,0,VALID,104,VALID,0,VALID,23.8127,VALID,283,VALID,0,
2012-03-19, 00:21:05,VALID,1010.35,VALID,0,VALID,104,VALID,0,VALID,23.8109,VALID,283,VALID,0,
2012-03-19, 00:22:05,VALID,1010.34,VALID,0,VALID,104,VALID,0,VALID,23.8109,VALID,283,VALID,0,
2012-03-19, 00:23:05,VALID,1010.36,VALID,0,VALID,104,VALID,0,VALID,23.7896,VALID,283,VALID,0,
2012-03-19, 00:24:05,VALID,1010.37,VALID,0,VALID,104,VALID,0,VALID,23.8109,VALID,283,VALID,0,
2012-03-19, 00:25:05,VALID,1010.37,VALID,0,VALID,104,VALID,0,VALID,23.7914,VALID,282,VALID,0,
2012-03-19, 00:26:05,VALID,1010.34,VALID,0,VALID,104,VALID,0,VALID,23.8109,VALID,283,VALID,0,
2012-03-19, 00:27:05,VALID,1010.35,VALID,0,VALID,104,VALID,0,VALID,23.8304,VALID,282,VALID,0.202344,
2012-03-19, 00:28:05,VALID,1010.33,VALID,0,VALID,104,VALID,0,VALID,23.8109,VALID,282,VALID,0.136328,
2012-03-19, 00:29:05,VALID,1010.32,VALID,0,VALID,104,VALID,0,VALID,23.7914,VALID,282,VALID,0,
2012-03-19, 00:30:05,VALID,1010.31,VALID,0,VALID,104,VALID,0,VALID,23.7914,VALID,282,VALID,0,
2012-03-19, 00:31:05,VALID,1010.34,VALID,0,VALID,104,VALID,0,VALID,23.772,VALID,283,VALID,0,
2012-03-19, 00:32:05,VALID,1010.32,VALID,0,VALID,104,VALID,0,VALID,23.7525,VALID,283,VALID,0,
2012-03-19, 00:33:05,VALID,1010.3,VALID,0,VALID,104,VALID,0,VALID,23.772,VALID,283,VALID,0,
2012-03-19, 00:34:05,VALID,1010.26,VALID,0,VALID,104,VALID,0,VALID,23.7914,VALID,282,VALID,0,
2012-03-19, 00:35:05,VALID,1010.25,VALID,0,VALID,104,VALID,0,VALID,23.7914,VALID,283,VALID,0,
2012-03-19, 00:36:05,VALID,1010.25,VALID,0,VALID,104,VALID,0,VALID,23.7914,VALID,283,VALID,0,
2012-03-19, 00:37:05,VALID,1010.24,VALID,0,VALID,104,VALID,0,VALID,23.7914,VALID,283,VALID,0,
2012-03-19, 00:38:05,VALID,1010.25,VALID,0,VALID,104,VALID,0,VALID,23.8109,VALID,282,VALID,0.135156,
2012-03-19, 00:39:05,VALID,1010.24,VALID,0,VALID,104,VALID,0,VALID,23.8109,VALID,283,VALID,0,
2012-03-19, 00:40:05,VALID,1010.28,VALID,0,VALID,104,VALID,0,VALID,23.7896,VALID,283,VALID,0,
2012-03-19, 00:41:05,VALID,1010.3,VALID,0,VALID,104,VALID,0.112112,VALID,23.8109,VALID,283,VALID,0.139062,
2012-03-19, 00:42:05,VALID,1010.28,VALID,0,VALID,104,VALID,0,VALID,23.8109,VALID,283,VALID,0.267578,
2012-03-19, 00:43:05,VALID,1010.3,VALID,0,VALID,104,VALID,0,VALID,23.7914,VALID,283,VALID,0.351953,
2012-03-19, 00:44:05,VALID,1010.32,VALID,0,VALID,104,VALID,0.112112,VALID,23.7914,VALID,283,VALID,0.280859,
2012-03-19, 00:45:05,VALID,1010.31,VALID,0,VALID,104,VALID,0,VALID,23.7507,VALID,283,VALID,0.290625,
2012-03-19, 00:46:05,VALID,1010.3,VALID,0,VALID,104,VALID,0,VALID,23.772,VALID,283,VALID,0.0398437,
2012-03-19, 00:47:05,VALID,1010.28,VALID,0,VALID,104,VALID,0.112112,VALID,23.7507,VALID,283,VALID,0,
2012-03-19, 00:48:05,VALID,1010.24,VALID,0,VALID,104,VALID,0,VALID,23.7312,VALID,283,VALID,0,
2012-03-19, 00:49:05,VALID,1010.22,VALID,0,VALID,104,VALID,0,VALID,23.772,VALID,283,VALID,0,
2012-03-19, 00:50:05,VALID,1010.24,VALID,0,VALID,104,VALID,0,VALID,23.733,VALID,282,VALID,0,
2012-03-19, 00:51:05,VALID,1010.23,VALID,0,VALID,104,VALID,0,VALID,23.7525,VALID,282,VALID,0,
2012-03-19, 00:52:05,VALID,1010.24,VALID,0,VALID,104,VALID,0.112112,VALID,23.7525,VALID,282,VALID,0,
2012-03-19, 00:53:05,VALID,1010.21,VALID,0,VALID,104,VALID,0,VALID,23.7525,VALID,283,VALID,0,
2012-03-19, 00:54:05,VALID,1010.21,VALID,0,VALID,104,VALID,0,VALID,23.7525,VALID,283,VALID,0,
2012-03-19, 00:55:05,VALID,1010.22,VALID,0,VALID,104,VALID,0,VALID,23.733,VALID,283,VALID,0,
2012-03-19, 00:56:05,VALID,1010.22,VALID,0,VALID,104,VALID,0,VALID,23.733,VALID,283,VALID,0.135547,
2012-03-19, 00:57:05,VALID,1010.23,VALID,0,VALID,104,VALID,0,VALID,23.7117,VALID,283,VALID,0,
2012-03-19, 00:58:05,VALID,1010.2,VALID,0,VALID,104,VALID,0,VALID,23.694,VALID,283,VALID,0,
2012-03-19, 00:59:05,VALID,1010.19,VALID,0,VALID,104,VALID,0.112112,VALID,23.694,VALID,283,VALID,0,
2012-03-19, 01:00:05,VALID,1010.17,VALID,0,VALID,104,VALID,0.112112,VALID,23.6727,VALID,283,VALID,0,
2012-03-19, 01:01:05,VALID,1010.15,VALID,0,VALID,104,VALID,0,VALID,23.6532,VALID,282,VALID,0,
2012-03-19, 01:02:05,VALID,1010.13,VALID,0,VALID,104,VALID,0.112112,VALID,23.6532,VALID,282,VALID,0,
2012-03-19, 01:03:05,VALID,1010.11,VALID,0,VALID,104,VALID,0,VALID,23.655,VALID,282,VALID,0,
2012-03-19, 01:04:05,VALID,1010.11,VALID,0,VALID,104,VALID,0,VALID,23.655,VALID,283,VALID,0.0105469,
2012-03-19, 01:05:05,VALID,1010.11,VALID,0,VALID,104,VALID,0.112112,VALID,23.655,VALID,283,VALID,0,
2012-03-19, 01:06:05,VALID,1010.09,VALID,0,VALID,104,VALID,0,VALID,23.655,VALID,282,VALID,0,
2012-03-19, 01:07:05,VALID,1010.09,VALID,0,VALID,104,VALID,0.112112,VALID,23.6338,VALID,283,VALID,0,
2012-03-19, 01:08:05,VALID,1010.07,VALID,0,VALID,104,VALID,0,VALID,23.6338,VALID,283,VALID,0,
2012-03-19, 01:09:05,VALID,1010.06,VALID,0,VALID,104,VALID,0.112112,VALID,23.6338,VALID,282,VALID,0,
2012-03-19, 01:10:05,VALID,1010.08,VALID,0,VALID,104,VALID,0,VALID,23.655,VALID,283,VALID,0,
2012-03-19, 01:11:05,VALID,1010.05,VALID,0,VALID,104,VALID,0,VALID,23.655,VALID,283,VALID,0,
2012-03-19, 01:12:05,VALID,1010.02,VALID,0,VALID,104,VALID,0.112112,VALID,23.6338,VALID,282,VALID,0.00078125,
2012-03-19, 01:13:05,VALID,1010.02,VALID,0,VALID,104,VALID,0,VALID,23.6745,VALID,282,VALID,0,
2012-03-19, 01:14:05,VALID,1010,VALID,0,VALID,104,VALID,0,VALID,23.6745,VALID,283,VALID,0.105859,
2012-03-19, 01:15:05,VALID,1009.98,VALID,0,VALID,104,VALID,0,VALID,23.655,VALID,283,VALID,0.163281,
2012-03-19, 01:16:05,VALID,1009.98,VALID,0,VALID,104,VALID,0.112112,VALID,23.6745,VALID,321,VALID,0.588281,
2012-03-19, 01:17:05,VALID,1009.98,VALID,0,VALID,104,VALID,0,VALID,23.6922,VALID,358,VALID,0.75625,
2012-03-19, 01:18:05,VALID,1009.96,VALID,0,VALID,104,VALID,0.112112,VALID,23.7525,VALID,14,VALID,0.528516,
2012-03-19, 01:19:05,VALID,1009.98,VALID,0,VALID,104,VALID,0,VALID,23.7312,VALID,14,VALID,0.509375,
2012-03-19, 01:20:05,VALID,1009.98,VALID,0,VALID,104,VALID,0,VALID,23.772,VALID,21,VALID,0.729688,
2012-03-19, 01:21:05,VALID,1009.98,VALID,0,VALID,104,VALID,0,VALID,23.7507,VALID,26,VALID,0.394922,
2012-03-19, 01:22:05,VALID,1009.96,VALID,0,VALID,104,VALID,0,VALID,23.772,VALID,26,VALID,0.371875,
2012-03-19, 01:23:05,VALID,1009.95,VALID,0,VALID,104,VALID,0,VALID,23.772,VALID,26,VALID,0.194922,
2012-03-19, 01:24:05,VALID,1009.96,VALID,0,VALID,104,VALID,0,VALID,23.772,VALID,26,VALID,0.431641,
2012-03-19, 01:25:05,VALID,1009.95,VALID,0,VALID,104,VALID,0,VALID,23.772,VALID,26,VALID,0.244922,
2012-03-19, 01:26:05,VALID,1009.93,VALID,0,VALID,104,VALID,0,VALID,23.772,VALID,26,VALID,0.160156,
2012-03-19, 01:27:05,VALID,1009.9,VALID,0,VALID,104,VALID,0.112112,VALID,23.7914,VALID,26,VALID,0.430859,
2012-03-19, 01:28:05,VALID,1009.84,VALID,0,VALID,104,VALID,0,VALID,23.772,VALID,26,VALID,0.191797,
2012-03-19, 01:29:05,VALID,1009.84,VALID,0,VALID,104,VALID,0.112112,VALID,23.772,VALID,26,VALID,0.204688,
2012-03-19, 01:30:05,VALID,1009.83,VALID,0,VALID,104,VALID,0.112112,VALID,23.7312,VALID,26,VALID,0.108984,
2012-03-19, 01:31:05,VALID,1009.81,VALID,0,VALID,104,VALID,0.112112,VALID,23.7312,VALID,26,VALID,0,
2012-03-19, 01:32:05,VALID,1009.8,VALID,0,VALID,104,VALID,0,VALID,23.733,VALID,26,VALID,0.0164062,
2012-03-19, 01:33:05,VALID,1009.73,VALID,0,VALID,104,VALID,0,VALID,23.7525,VALID,26,VALID,0.025,
2012-03-19, 01:34:05,VALID,1009.73,VALID,0,VALID,104,VALID,0,VALID,23.733,VALID,26,VALID,0,
2012-03-19, 01:35:05,VALID,1009.7,VALID,0,VALID,104,VALID,0.112112,VALID,23.733,VALID,26,VALID,0,
2012-03-19, 01:36:05,VALID,1009.67,VALID,0,VALID,104,VALID,0,VALID,23.7135,VALID,26,VALID,0.122266,
2012-03-19, 01:37:05,VALID,1009.62,VALID,0,VALID,104,VALID,0,VALID,23.7135,VALID,26,VALID,0.627734,
2012-03-19, 01:38:05,VALID,1009.61,VALID,0,VALID,104,VALID,0,VALID,23.7135,VALID,26,VALID,0.304688,
2012-03-19, 01:39:05,VALID,1009.59,VALID,0,VALID,104,VALID,0,VALID,23.6532,VALID,26,VALID,0.0964844,
2012-03-19, 01:40:05,VALID,1009.58,VALID,0,VALID,104,VALID,0,VALID,23.655,VALID,26,VALID,0.0175781,
2012-03-19, 01:41:05,VALID,1009.59,VALID,0,VALID,104,VALID,0.112112,VALID,23.655,VALID,26,VALID,0.341016,
2012-03-19, 01:42:05,VALID,1009.6,VALID,0,VALID,104,VALID,0,VALID,23.655,VALID,26,VALID,0.300781,
2012-03-19, 01:43:05,VALID,1009.58,VALID,0,VALID,104,VALID,0.112112,VALID,23.6161,VALID,26,VALID,0,
2012-03-19, 01:44:05,VALID,1009.58,VALID,0,VALID,104,VALID,0.112112,VALID,23.6356,VALID,26,VALID,0,
2012-03-19, 01:45:05,VALID,1009.57,VALID,0,VALID,104,VALID,0,VALID,23.5948,VALID,26,VALID,0,
2012-03-19, 01:46:05,VALID,1009.55,VALID,0,VALID,104,VALID,0,VALID,23.6161,VALID,26,VALID,0,
2012-03-19, 01:47:05,VALID,1009.55,VALID,0,VALID,104,VALID,0.112112,VALID,23.6161,VALID,26,VALID,0,
2012-03-19, 01:48:05,VALID,1009.51,VALID,0,VALID,104,VALID,0,VALID,23.6161,VALID,26,VALID,0,
2012-03-19, 01:49:05,VALID,1009.49,VALID,0,VALID,104,VALID,0.112112,VALID,23.6356,VALID,26,VALID,0,
2012-03-19, 01:50:05,VALID,1009.46,VALID,0,VALID,104,VALID,0.112112,VALID,23.6338,VALID,26,VALID,0.0683594,
2012-03-19, 01:51:05,VALID,1009.45,VALID,0,VALID,104,VALID,0.112112,VALID,23.6745,VALID,26,VALID,0.284375,
2012-03-19, 01:52:05,VALID,1009.45,VALID,0,VALID,104,VALID,0,VALID,23.694,VALID,26,VALID,0.216797,
2012-03-19, 01:53:05,VALID,1009.45,VALID,0,VALID,104,VALID,0,VALID,23.7135,VALID,26,VALID,0.0273438,
2012-03-19, 01:54:05,VALID,1009.41,VALID,0,VALID,104,VALID,0,VALID,23.7135,VALID,26,VALID,0.107813,
2012-03-19, 01:55:05,VALID,1009.41,VALID,0,VALID,104,VALID,0,VALID,23.694,VALID,26,VALID,0.278516,
2012-03-19, 01:56:05,VALID,1009.4,VALID,0,VALID,104,VALID,0,VALID,23.694,VALID,26,VALID,0.110937,
2012-03-19, 01:57:05,VALID,1009.43,VALID,0,VALID,104,VALID,0,VALID,23.694,VALID,26,VALID,0,
2012-03-19, 01:58:05,VALID,1009.41,VALID,0,VALID,104,VALID,0,VALID,23.6727,VALID,26,VALID,0.164063,
2012-03-19, 01:59:05,VALID,1009.4,VALID,0,VALID,104,VALID,0,VALID,23.6532,VALID,26,VALID,0.30625,
2012-03-19, 02:00:05,VALID,1009.38,VALID,0,VALID,104,VALID,0.112112,VALID,23.6727,VALID,26,VALID,0.223047,
2012-03-19, 02:01:05,VALID,1009.33,VALID,0,VALID,104,VALID,0,VALID,23.655,VALID,26,VALID,0.284766,
2012-03-19, 02:02:05,VALID,1009.33,VALID,0,VALID,104,VALID,0.112112,VALID,23.655,VALID,26,VALID,0.214062,
2012-03-19, 02:03:05,VALID,1009.35,VALID,0,VALID,104,VALID,0,VALID,23.6161,VALID,26,VALID,0.239063,
2012-03-19, 02:04:05,VALID,1009.33,VALID,0,VALID,104,VALID,0,VALID,23.6161,VALID,26,VALID,0.215234,
2012-03-19, 02:05:05,VALID,1009.32,VALID,0,VALID,104,VALID,0,VALID,23.5966,VALID,26,VALID,0,
2012-03-19, 02:06:05,VALID,1009.34,VALID,0,VALID,104,VALID,0.112112,VALID,23.5771,VALID,26,VALID,0,
2012-03-19, 02:07:05,VALID,1009.28,VALID,0,VALID,104,VALID,0,VALID,23.5771,VALID,26,VALID,0,
2012-03-19, 02:08:05,VALID,1009.28,VALID,0,VALID,104,VALID,0.112112,VALID,23.5363,VALID,26,VALID,0,
2012-03-19, 02:09:05,VALID,1009.28,VALID,0,VALID,104,VALID,0.112112,VALID,23.5169,VALID,26,VALID,0,
2012-03-19, 02:10:05,VALID,1009.31,VALID,0,VALID,104,VALID,0.112112,VALID,23.5381,VALID,26,VALID,0.225,
2012-03-19, 02:11:05,VALID,1009.3,VALID,0,VALID,104,VALID,0,VALID,23.4992,VALID,26,VALID,0.195313,
2012-03-19, 02:12:05,VALID,1009.28,VALID,0,VALID,104,VALID,0,VALID,23.4779,VALID,26,VALID,0.121094,
2012-03-19, 02:13:05,VALID,1009.29,VALID,0,VALID,104,VALID,0,VALID,23.5381,VALID,26,VALID,0,
2012-03-19, 02:14:05,VALID,1009.27,VALID,0,VALID,104,VALID,0.112112,VALID,23.5186,VALID,26,VALID,0,
2012-03-19, 02:15:05,VALID,1009.25,VALID,0,VALID,104,VALID,0,VALID,23.5169,VALID,26,VALID,0,
2012-03-19, 02:16:05,VALID,1009.23,VALID,0,VALID,104,VALID,0.112112,VALID,23.5186,VALID,26,VALID,0,
2012-03-19, 02:17:05,VALID,1009.25,VALID,0,VALID,104,VALID,0.112112,VALID,23.5186,VALID,26,VALID,0,
2012-03-19, 02:18:05,VALID,1009.28,VALID,0,VALID,104,VALID,0.112112,VALID,23.5186,VALID,26,VALID,0,
2012-03-19, 02:19:05,VALID,1009.28,VALID,0,VALID,104,VALID,0,VALID,23.5186,VALID,26,VALID,0,
2012-03-19, 02:20:05,VALID,1009.3,VALID,0,VALID,104,VALID,0,VALID,23.4974,VALID,26,VALID,0,
2012-03-19, 02:21:05,VALID,1009.33,VALID,0,VALID,104,VALID,0,VALID,23.5186,VALID,26,VALID,0,
2012-03-19, 02:22:05,VALID,1009.35,VALID,0,VALID,104,VALID,0,VALID,23.5186,VALID,26,VALID,0,
2012-03-19, 02:23:05,VALID,1009.36,VALID,0,VALID,104,VALID,0,VALID,23.4992,VALID,26,VALID,0,
2012-03-19, 02:24:05,VALID,1009.38,VALID,0,VALID,104,VALID,0.112112,VALID,23.4992,VALID,26,VALID,0,
2012-03-19, 02:25:05,VALID,1009.42,VALID,0,VALID,104,VALID,0,VALID,23.4992,VALID,26,VALID,0,
2012-03-19, 02:26:05,VALID,1009.42,VALID,0,VALID,104,VALID,0.112112,VALID,23.5381,VALID,26,VALID,0.0132813,
2012-03-19, 02:27:05,VALID,1009.47,VALID,0,VALID,104,VALID,0,VALID,23.5169,VALID,26,VALID,0.473437,
2012-03-19, 02:28:05,VALID,1009.47,VALID,0,VALID,104,VALID,0,VALID,23.5576,VALID,26,VALID,0.139453,
2012-03-19, 02:29:05,VALID,1009.46,VALID,0,VALID,104,VALID,0.112112,VALID,23.5186,VALID,26,VALID,0,
2012-03-19, 02:30:05,VALID,1009.47,VALID,0,VALID,104,VALID,0,VALID,23.5186,VALID,26,VALID,0.239063,
2012-03-19, 02:31:05,VALID,1009.48,VALID,0,VALID,104,VALID,0.112112,VALID,23.5186,VALID,26,VALID,0.114844,
2012-03-19, 02:32:05,VALID,1009.48,VALID,0,VALID,104,VALID,0,VALID,23.4974,VALID,26,VALID,0,
2012-03-19, 02:33:05,VALID,1009.48,VALID,0,VALID,104,VALID,0.112112,VALID,23.4974,VALID,26,VALID,0.0015625,
2012-03-19, 02:34:05,VALID,1009.47,VALID,0,VALID,104,VALID,0,VALID,23.4974,VALID,26,VALID,0,
2012-03-19, 02:35:05,VALID,1009.52,VALID,0,VALID,104,VALID,0,VALID,23.5381,VALID,26,VALID,0,
2012-03-19, 02:36:05,VALID,1009.49,VALID,0,VALID,104,VALID,0,VALID,23.5381,VALID,26,VALID,0.00390625,
2012-03-19, 02:37:05,VALID,1009.5,VALID,0,VALID,104,VALID,0.112112,VALID,23.5381,VALID,26,VALID,0,
2012-03-19, 02:38:05,VALID,1009.49,VALID,0,VALID,104,VALID,0,VALID,23.5186,VALID,26,VALID,0,
2012-03-19, 02:39:05,VALID,1009.49,VALID,0,VALID,104,VALID,0,VALID,23.5186,VALID,26,VALID,0,
2012-03-19, 02:40:05,VALID,1009.48,VALID,0,VALID,104,VALID,0.112112,VALID,23.4992,VALID,26,VALID,0,
2012-03-19, 02:41:05,VALID,1009.49,VALID,0,VALID,104,VALID,0.112112,VALID,23.4992,VALID,26,VALID,0,
2012-03-19, 02:42:05,VALID,1009.47,VALID,0,VALID,104,VALID,0,VALID,23.4797,VALID,26,VALID,0,
2012-03-19, 02:43:05,VALID,1009.46,VALID,0,VALID,104,VALID,0,VALID,23.4602,VALID,26,VALID,0,
2012-03-19, 02:44:05,VALID,1009.47,VALID,0,VALID,104,VALID,0,VALID,23.4425,VALID,26,VALID,0,
2012-03-19, 02:45:05,VALID,1009.46,VALID,0,VALID,104,VALID,0,VALID,23.4017,VALID,26,VALID,0.0394531,
2012-03-19, 02:46:05,VALID,1009.47,VALID,0,VALID,104,VALID,0,VALID,23.4212,VALID,26,VALID,0.251563,
2012-03-19, 02:47:05,VALID,1009.47,VALID,0,VALID,104,VALID,0,VALID,23.4212,VALID,26,VALID,0.0972656,
2012-03-19, 02:48:05,VALID,1009.51,VALID,0,VALID,104,VALID,0,VALID,23.4017,VALID,26,VALID,0,
2012-03-19, 02:49:05,VALID,1009.5,VALID,0,VALID,104,VALID,0,VALID,23.4017,VALID,26,VALID,0,
2012-03-19, 02:50:05,VALID,1009.53,VALID,0,VALID,104,VALID,0,VALID,23.3823,VALID,26,VALID,0,
2012-03-19, 02:51:05,VALID,1009.52,VALID,0,VALID,104,VALID,0,VALID,23.3433,VALID,26,VALID,0,
2012-03-19, 02:52:05,VALID,1009.51,VALID,0,VALID,104,VALID,0,VALID,23.3628,VALID,26,VALID,0,
2012-03-19, 02:53:05,VALID,1009.5,VALID,0,VALID,104,VALID,0,VALID,23.3628,VALID,26,VALID,0,
2012-03-19, 02:54:05,VALID,1009.53,VALID,0,VALID,104,VALID,0,VALID,23.3628,VALID,26,VALID,0,
2012-03-19, 02:55:05,VALID,1009.52,VALID,0,VALID,104,VALID,0,VALID,23.4017,VALID,26,VALID,0,
2012-03-19, 02:56:05,VALID,1009.53,VALID,0,VALID,104,VALID,0,VALID,23.4017,VALID,26,VALID,0,
2012-03-19, 02:57:05,VALID,1009.53,VALID,0,VALID,104,VALID,0,VALID,23.4017,VALID,26,VALID,0.208203,
2012-03-19, 02:58:05,VALID,1009.54,VALID,0,VALID,104,VALID,0,VALID,23.4017,VALID,26,VALID,0,
2012-03-19, 02:59:05,VALID,1009.55,VALID,0,VALID,104,VALID,0.112112,VALID,23.4017,VALID,26,VALID,0,
2012-03-19, 03:00:04,VALID,1009.58,VALID,0,VALID,104,VALID,0,VALID,23.3823,VALID,26,VALID,0,
2012-03-19, 03:01:04,VALID,1009.6,VALID,0,VALID,104,VALID,0,VALID,23.3628,VALID,26,VALID,0,
2012-03-19, 03:02:04,VALID,1009.65,VALID,0,VALID,104,VALID,0,VALID,23.3823,VALID,26,VALID,0,
2012-03-19, 03:03:04,VALID,1009.61,VALID,0,VALID,104,VALID,0,VALID,23.3823,VALID,26,VALID,0,
2012-03-19, 03:04:04,VALID,1009.63,VALID,0,VALID,104,VALID,0,VALID,23.3823,VALID,26,VALID,0,
2012-03-19, 03:05:04,VALID,1009.66,VALID,0,VALID,104,VALID,0,VALID,23.4017,VALID,26,VALID,0,
2012-03-19, 03:06:04,VALID,1009.64,VALID,0,VALID,104,VALID,0.112112,VALID,23.4212,VALID,26,VALID,0,
2012-03-19, 03:07:04,VALID,1009.65,VALID,0,VALID,104,VALID,0.112112,VALID,23.462,VALID,26,VALID,0,
2012-03-19, 03:08:04,VALID,1009.61,VALID,0,VALID,104,VALID,0,VALID,23.4212,VALID,26,VALID,0,
2012-03-19, 03:09:04,VALID,1009.61,VALID,0,VALID,104,VALID,0,VALID,23.4407,VALID,26,VALID,0.0496094,
2012-03-19, 03:10:04,VALID,1009.62,VALID,0,VALID,104,VALID,0,VALID,23.4212,VALID,26,VALID,0.298047,
2012-03-19, 03:11:04,VALID,1009.61,VALID,0,VALID,104,VALID,0.112112,VALID,23.4212,VALID,26,VALID,0.419922,
2012-03-19, 03:12:04,VALID,1009.6,VALID,0,VALID,104,VALID,0,VALID,23.4017,VALID,26,VALID,0.226172,
2012-03-19, 03:13:04,VALID,1009.65,VALID,0,VALID,104,VALID,0,VALID,23.3823,VALID,26,VALID,0.180469,
2012-03-19, 03:14:04,VALID,1009.59,VALID,0,VALID,104,VALID,0.112112,VALID,23.4035,VALID,26,VALID,0,
2012-03-19, 03:15:04,VALID,1009.61,VALID,0,VALID,104,VALID,0,VALID,23.3645,VALID,26,VALID,0,
2012-03-19, 03:16:04,VALID,1009.58,VALID,0,VALID,104,VALID,0,VALID,23.3433,VALID,26,VALID,0,
2012-03-19, 03:17:04,VALID,1009.58,VALID,0,VALID,104,VALID,0,VALID,23.3043,VALID,26,VALID,0,
2012-03-19, 03:18:04,VALID,1009.56,VALID,0,VALID,104,VALID,0,VALID,23.2848,VALID,26,VALID,0,
2012-03-19, 03:19:04,VALID,1009.59,VALID,0,VALID,104,VALID,0,VALID,23.2848,VALID,26,VALID,0,
2012-03-19, 03:20:04,VALID,1009.59,VALID,0,VALID,104,VALID,0,VALID,23.3043,VALID,26,VALID,0.355078,
2012-03-19, 03:21:04,VALID,1009.61,VALID,0,VALID,104,VALID,0,VALID,23.3043,VALID,26,VALID,0,
2012-03-19, 03:22:04,VALID,1009.62,VALID,0,VALID,104,VALID,0.112112,VALID,23.3043,VALID,26,VALID,0.0160156,
2012-03-19, 03:23:04,VALID,1009.65,VALID,0,VALID,104,VALID,0,VALID,23.2848,VALID,26,VALID,0,
2012-03-19, 03:24:04,VALID,1009.64,VALID,0,VALID,104,VALID,0,VALID,23.3043,VALID,26,VALID,0.00429688,
2012-03-19, 03:25:04,VALID,1009.65,VALID,0,VALID,104,VALID,0.112112,VALID,23.3026,VALID,26,VALID,0.246094,
2012-03-19, 03:26:04,VALID,1009.65,VALID,0,VALID,104,VALID,0,VALID,23.3238,VALID,26,VALID,0,
2012-03-19, 03:27:04,VALID,1009.65,VALID,0,VALID,104,VALID,0,VALID,23.3238,VALID,26,VALID,0,
2012-03-19, 03:28:04,VALID,1009.67,VALID,0,VALID,104,VALID,0,VALID,23.3043,VALID,26,VALID,0,
2012-03-19, 03:29:04,VALID,1009.67,VALID,0,VALID,104,VALID,0,VALID,23.2848,VALID,26,VALID,0,
2012-03-19, 03:30:04,VALID,1009.66,VALID,0,VALID,104,VALID,0,VALID,23.2848,VALID,26,VALID,0,
2012-03-19, 03:31:04,VALID,1009.68,VALID,0,VALID,104,VALID,0,VALID,23.2654,VALID,26,VALID,0.046875,
2012-03-19, 03:32:04,VALID,1009.65,VALID,0,VALID,104,VALID,0,VALID,23.2654,VALID,26,VALID,0.110547,
2012-03-19, 03:33:04,VALID,1009.63,VALID,0,VALID,104,VALID,0,VALID,23.2654,VALID,26,VALID,0.00117188,
2012-03-19, 03:34:04,VALID,1009.61,VALID,0,VALID,104,VALID,0,VALID,23.2654,VALID,26,VALID,0.153906,
2012-03-19, 03:35:04,VALID,1009.57,VALID,0,VALID,104,VALID,0,VALID,23.2848,VALID,26,VALID,0.00664063,
2012-03-19, 03:36:04,VALID,1009.55,VALID,0,VALID,104,VALID,0,VALID,23.2654,VALID,26,VALID,0.0105469,
2012-03-19, 03:37:04,VALID,1009.56,VALID,0,VALID,104,VALID,0,VALID,23.2671,VALID,26,VALID,0,
2012-03-19, 03:38:04,VALID,1009.6,VALID,0,VALID,104,VALID,0,VALID,23.2459,VALID,26,VALID,0,
2012-03-19, 03:39:04,VALID,1009.59,VALID,0,VALID,104,VALID,0,VALID,23.2654,VALID,26,VALID,0,
2012-03-19, 03:40:04,VALID,1009.6,VALID,0,VALID,104,VALID,0,VALID,23.2654,VALID,26,VALID,0,
2012-03-19, 03:41:04,VALID,1009.64,VALID,0,VALID,104,VALID,0.112112,VALID,23.2654,VALID,26,VALID,0,
2012-03-19, 03:42:04,VALID,1009.62,VALID,0,VALID,104,VALID,0,VALID,23.2848,VALID,26,VALID,0,
2012-03-19, 03:43:04,VALID,1009.62,VALID,0,VALID,104,VALID,0,VALID,23.3043,VALID,26,VALID,0.3,
2012-03-19, 03:44:04,VALID,1009.61,VALID,0,VALID,104,VALID,0,VALID,23.3433,VALID,26,VALID,0,
2012-03-19, 03:45:04,VALID,1009.62,VALID,0,VALID,104,VALID,0.112112,VALID,23.3433,VALID,26,VALID,0.135156,
2012-03-19, 03:46:04,VALID,1009.64,VALID,0,VALID,104,VALID,0.112112,VALID,23.3433,VALID,26,VALID,0,
2012-03-19, 03:47:04,VALID,1009.64,VALID,0,VALID,104,VALID,0,VALID,23.3628,VALID,26,VALID,0,
2012-03-19, 03:48:04,VALID,1009.66,VALID,0,VALID,104,VALID,0,VALID,23.3628,VALID,26,VALID,0,
2012-03-19, 03:49:04,VALID,1009.68,VALID,0,VALID,104,VALID,0,VALID,23.3628,VALID,26,VALID,0,
2012-03-19, 03:50:04,VALID,1009.69,VALID,0,VALID,104,VALID,0,VALID,23.3415,VALID,26,VALID,0,
2012-03-19, 03:51:04,VALID,1009.71,VALID,0,VALID,104,VALID,0.112112,VALID,23.3628,VALID,26,VALID,0,
2012-03-19, 03:52:04,VALID,1009.74,VALID,0,VALID,104,VALID,0.112112,VALID,23.3628,VALID,26,VALID,0,
2012-03-19, 03:53:04,VALID,1009.76,VALID,0,VALID,104,VALID,0.112112,VALID,23.3823,VALID,26,VALID,0,
2012-03-19, 03:54:04,VALID,1009.73,VALID,0,VALID,104,VALID,0.112112,VALID,23.3628,VALID,26,VALID,0,
2012-03-19, 03:55:04,VALID,1009.74,VALID,0,VALID,104,VALID,0.112112,VALID,23.3628,VALID,26,VALID,0,
2012-03-19, 03:56:04,VALID,1009.76,VALID,0,VALID,104,VALID,0,VALID,23.3433,VALID,26,VALID,0,
2012-03-19, 03:57:04,VALID,1009.78,VALID,0,VALID,104,VALID,0,VALID,23.3238,VALID,26,VALID,0,
2012-03-19, 03:58:04,VALID,1009.77,VALID,0,VALID,104,VALID,0.112112,VALID,23.3433,VALID,26,VALID,0,
2012-03-19, 03:59:04,VALID,1009.76,VALID,0,VALID,104,VALID,0.112112,VALID,23.3026,VALID,26,VALID,0,
2012-03-19, 04:00:04,VALID,1009.73,VALID,0,VALID,104,VALID,0,VALID,23.3238,VALID,26,VALID,0,